Location: Bo?a Wola
(50.4192°N, 19.7966°E)
Time: 05:07:07
(UTC+00:00)

CZ-4C R/B - Pass Details

Date: 21 September 2024
Orbit: 519 x 1471 km, 63.4° (Epoch: 09 October)

Event Time Altitude Azimuth Distance (km) Brightness Sun altitude
Exits shadow 00:09:33 35° 357° (N) 1,332 3.5 -35.1°
Drops below altitude 10° 00:14:18 10° 40° (NE) 2,722 5.6 -34.7°
Sets 00:17:27 0° 48° (NE) 3,847 6.6 -34.4°
